Location: Unspecified
(47.3532°N, 122.5883°W)
Time: 05:36:51
(UTC-07:00)

GENESIS II - Visible Passes

Search period start: 21 June 2018 00:00
Search period end: 01 July 2018 00:00
Orbit: 504 x 528 km, 64.5° (Epoch: 20 June)

Date Brightness Start Highest point End Pass type
(mag) Time Alt. Az. Time Alt. Az. Time Alt. Az.
21 Jun 7.5 04:32:15 10° N 04:34:46 16° NNE 04:37:17 10° ENE visible
21 Jun 6.6 23:17:42 10° W 23:21:02 26° NW 23:24:25 10° NNE visible
22 Jun 7.5 04:16:37 10° N 04:19:09 16° NNE 04:21:42 10° ENE visible
22 Jun 6.7 23:02:05 10° W 23:05:25 26° NW 23:08:47 10° NNE visible
23 Jun 7.6 04:00:57 10° N 04:03:32 16° NNE 04:06:07 10° ENE visible
23 Jun 6.8 22:46:30 10° W 22:49:48 25° NW 22:53:08 10° NNE visible
24 Jun 7.6 03:45:18 10° N 03:47:55 17° NNE 03:50:32 10° ENE visible
24 Jun 6.9 22:30:54 10° W 22:34:11 25° NW 22:37:30 10° NNE visible
25 Jun 7.6 03:29:39 10° N 03:32:18 17° NNE 03:34:57 10° ENE visible
25 Jun 7.0 22:15:17 10° W 22:18:33 24° NW 22:21:51 10° NNE visible
26 Jun 7.6 03:14:00 10° N 03:16:41 17° NNE 03:19:21 10° ENE visible
26 Jun 7.1 21:59:41 10° W 22:02:56 24° NW 22:06:12 10° NNE visible
27 Jun 7.5 02:58:21 10° N 03:01:04 17° NNE 03:03:46 10° ENE visible
27 Jun 4.3 04:35:19 10° NW 04:39:19 88° SW 04:43:18 10° SE visible
28 Jun 7.4 02:42:42 10° N 02:45:27 18° NNE 02:48:11 10° ENE visible
28 Jun 4.2 04:19:40 10° NW 04:23:41 86° SW 04:27:40 10° SE visible
29 Jun 7.3 02:27:03 10° N 02:29:50 18° NNE 02:32:36 10° ENE visible
29 Jun 4.2 04:04:02 10° NW 04:08:03 84° SW 04:12:02 10° SE visible
30 Jun 7.2 02:11:24 10° NNW 02:14:12 18° NNE 02:17:01 10° ENE visible
30 Jun 4.2 03:48:24 10° NW 03:52:25 82° SW 03:56:23 10° SSE visible
